Slayton, MN

1:37 AM CST on February 23, 2018 (GMT -0600)
Slayton

Weather History for KDVP - October, 2013

Change the Weather History Date:

Friday, October 4, 2013

  Actual Average (KOTG) Record (KOTG)
Temperature  
Mean Temperature 54 °F -  
Max Temperature 57 °F 62 °F 85 °F (1976)
Min Temperature 51 °F 41 °F 26 °F (1980)
Degree Days  
Heating Degree Days 11    
Growing Degree Days 4 (Base 50)    
Moisture  
Dew Point 54 °F    
Average Humidity 100    
Maximum Humidity 100    
Minimum Humidity 100    
Precipitation  
Precipitation 0.27 in - - ()
Sea Level Pressure  
Sea Level Pressure 29.87 in    
Wind  
Wind Speed 11 mph (NE)    
Max Wind Speed 18 mph    
Max Gust Speed 24 mph    
Visibility 2 miles    
Events Fog , Rain , Thunderstorm    
Averages and records for this station are not official NWS values.
T = Trace of Precipitation, MM = Missing Value Source: NWS Daily Summary

Daily Weather History Graph

Daily Weather History Graph

Search for Another Location

Airport or City:

Trip Planner

Search our weather history database for the weather conditions in past years. The results will help you decide how hot, cold, wet, or windy it might be!

Date:

Astronomy

Oct. 04, 2013 Rise Set
Actual Time 7:24 AM CDT 6:58 PM CDT
Civil Twilight 6:55 AM CDT 7:26 PM CDT
Nautical Twilight 6:22 AM CDT 8:00 PM CDT
Astronomical Twilight 5:48 AM CDT 8:33 PM CDT
Moon 7:01 AM CDT (10/4) 6:39 PM CDT (10/4)
Length of Visible Light 12h 30m
Length of Day
11h 33m
Waning Crescent, 0% of the Moon is Illuminated
Oct 4
Waning Crescent
Oct 4
New
Oct 11
First Quarter
Oct 18
Full
Oct 26
Last Quarter

Hourly Weather History & Observations

Time (CDT) Temp. Dew Point Humidity Pressure Visibility Wind Dir Wind Speed Gust Speed Precip Events Conditions
12:12 AM 53.1 °F 53.1 °F 100% 29.92 in 2.0 mi North 10.4 mph 19.6 mph N/A   Overcast
12:33 AM 53.2 °F 53.2 °F 100% 29.93 in 1.5 mi NNE 8.1 mph - N/A   Overcast
12:53 AM 53.2 °F 53.2 °F 100% 29.95 in 1.5 mi NNE 10.4 mph 16.1 mph N/A   Overcast
1:14 AM 53.1 °F 53.1 °F 100% 29.92 in 1.0 mi NNE 11.5 mph 17.3 mph N/A   Overcast
1:33 AM 53.1 °F 53.1 °F 100% 29.94 in 1.2 mi NNE 10.4 mph 16.1 mph N/A   Overcast
1:53 AM 53.1 °F 53.1 °F 100% 29.95 in 1.0 mi NNE 10.4 mph - N/A   Overcast
2:13 AM 52.9 °F 52.9 °F 100% 29.93 in 0.5 mi NNE 9.2 mph - N/A Fog Fog
2:33 AM 52.7 °F 52.7 °F 100% 29.92 in 0.5 mi NE 11.5 mph 18.4 mph N/A   Drizzle
2:53 AM 52.7 °F 52.7 °F 100% 29.91 in 0.5 mi NNE 10.4 mph 20.7 mph N/A Rain Light Rain
3:13 AM 52.5 °F 52.5 °F 100% 29.92 in 0.5 mi NNE 11.5 mph - N/A   Drizzle
3:33 AM 52.3 °F 52.3 °F 100% 29.92 in 0.5 mi NNE 10.4 mph 16.1 mph N/A Rain Rain
3:53 AM 52.2 °F 52.2 °F 100% 29.92 in 0.8 mi NE 11.5 mph - N/A   Light Drizzle
4:13 AM 52.2 °F 52.2 °F 100% 29.93 in 1.0 mi NE 11.5 mph - N/A   Light Drizzle
4:32 AM 52.3 °F 52.3 °F 100% 29.92 in 1.0 mi NE 10.4 mph - N/A   Light Drizzle
4:53 AM 52.2 °F 52.2 °F 100% 29.92 in 1.8 mi NE 13.8 mph - N/A Rain Light Rain
5:13 AM 52.0 °F 52.0 °F 100% 29.93 in 0.8 mi NNE 9.2 mph 17.3 mph N/A Rain Light Rain
5:34 AM 52.0 °F 52.0 °F 100% 29.94 in 0.5 mi ENE 9.2 mph - N/A   Light Drizzle
5:53 AM 52.0 °F 52.0 °F 100% 29.94 in 0.5 mi NE 10.4 mph - N/A   Drizzle
6:13 AM 51.8 °F 51.8 °F 100% 29.93 in 0.5 mi NE 9.2 mph - N/A   Drizzle
6:33 AM 51.8 °F 51.8 °F 100% 29.92 in 0.2 mi NE 10.4 mph - N/A Rain Heavy Rain
6:53 AM 51.6 °F 51.6 °F 100% 29.93 in 0.5 mi NE 10.4 mph 16.1 mph N/A Rain Rain
7:13 AM 51.4 °F 51.4 °F 100% 29.92 in 0.5 mi NE 10.4 mph - N/A Rain Light Rain
7:33 AM 51.4 °F 51.4 °F 100% 29.91 in 0.2 mi NE 8.1 mph 16.1 mph N/A   Heavy Drizzle
7:54 AM 51.4 °F 51.4 °F 100% 29.92 in 0.2 mi NE 11.5 mph - N/A Rain Heavy Rain
8:13 AM 51.4 °F 51.4 °F 100% 29.91 in 0.5 mi NNE 6.9 mph - N/A Rain Heavy Rain
8:33 AM 51.6 °F 51.6 °F 100% 29.92 in 0.2 mi NE 10.4 mph 16.1 mph N/A Rain Rain
8:52 AM 51.8 °F 51.8 °F 100% 29.91 in 0.2 mi NE 11.5 mph 18.4 mph N/A Rain Rain
9:13 AM 51.8 °F 51.8 °F 100% 29.91 in 0.2 mi NE 11.5 mph 17.3 mph N/A   Heavy Drizzle
9:33 AM 52.0 °F 52.0 °F 100% 29.91 in 0.5 mi NE 9.2 mph - N/A   Drizzle
9:53 AM 52.2 °F 52.2 °F 100% 29.92 in 0.5 mi NNE 8.1 mph - N/A   Drizzle
10:13 AM 52.3 °F 52.3 °F 100% 29.93 in 0.8 mi NE 12.7 mph 16.1 mph N/A   Drizzle
10:34 AM 52.7 °F 52.7 °F 100% 29.94 in 0.8 mi NE 13.8 mph 17.3 mph N/A Rain Rain
10:53 AM 52.9 °F 52.9 °F 100% 29.94 in 1.0 mi NE 10.4 mph - 0.01 in Rain Rain
11:14 AM 53.2 °F 53.2 °F 100% 29.93 in 1.8 mi NE 11.5 mph - N/A   Light Drizzle
11:33 AM 53.6 °F 53.6 °F 100% 29.92 in 1.8 mi NE 10.4 mph 17.3 mph N/A   Light Drizzle
11:53 AM 54.0 °F 54.0 °F 100% 29.92 in 2.0 mi NE 9.2 mph - N/A   Overcast
12:13 PM 54.3 °F 54.3 °F 100% 29.92 in 2.0 mi NE 11.5 mph 17.3 mph 0.01 in   Overcast
12:33 PM 54.3 °F 54.3 °F 100% 29.91 in 2.0 mi ENE 12.7 mph 19.6 mph 0.01 in   Overcast
12:53 PM 54.7 °F 54.7 °F 100% 29.90 in 2.0 mi NE 11.5 mph 17.3 mph 0.01 in   Overcast
1:13 PM 54.9 °F 54.9 °F 100% 29.89 in 2.5 mi NE 10.4 mph - N/A   Overcast
1:33 PM 54.9 °F 54.9 °F 100% 29.88 in 4.0 mi ENE 15.0 mph 24.2 mph N/A   Overcast
1:53 PM 55.0 °F 55.0 °F 100% 29.87 in 4.0 mi ENE 16.1 mph 21.9 mph N/A   Overcast
2:13 PM 55.0 °F 55.0 °F 100% 29.86 in 2.5 mi ENE 17.3 mph 24.2 mph N/A   Overcast
2:32 PM 55.4 °F 55.4 °F 100% 29.86 in 1.8 mi ENE 15.0 mph 23.0 mph N/A   Overcast
2:53 PM 55.4 °F 55.4 °F 100% 29.86 in 1.5 mi ENE 11.5 mph 19.6 mph N/A   Overcast
3:13 PM 55.4 °F 55.4 °F 100% 29.86 in 1.5 mi ENE 11.5 mph 20.7 mph N/A   Overcast
3:33 PM 55.6 °F 55.6 °F 100% 29.85 in 1.2 mi NE 13.8 mph 17.3 mph N/A   Overcast
3:53 PM 55.6 °F 55.6 °F 100% 29.84 in 1.2 mi ENE 13.8 mph 20.7 mph N/A Rain Light Rain
4:13 PM 55.8 °F 55.8 °F 100% 29.84 in 1.2 mi ENE 15.0 mph 18.4 mph N/A   Overcast
4:33 PM 55.8 °F 55.8 °F 100% 29.84 in 0.8 mi ENE 12.7 mph 19.6 mph N/A   Overcast
4:53 PM 55.9 °F 55.9 °F 100% 29.83 in 0.5 mi ENE 15.0 mph 19.6 mph N/A Rain Heavy Rain
5:13 PM 56.1 °F 56.1 °F 100% 29.83 in 0.5 mi ENE 13.8 mph 21.9 mph N/A Rain Light Rain
5:33 PM 56.3 °F 56.3 °F 100% 29.82 in 1.2 mi ENE 11.5 mph 20.7 mph N/A   Drizzle
5:52 PM 55.9 °F 55.9 °F 100% 29.80 in 1.2 mi NE 12.7 mph 20.7 mph 0.01 in Rain Light Rain
6:13 PM 55.9 °F 55.9 °F 100% 29.79 in 1.5 mi NE 16.1 mph 21.9 mph N/A   Overcast
6:33 PM 55.9 °F 55.9 °F 100% 29.78 in 1.5 mi ENE 16.1 mph 24.2 mph N/A   Overcast
6:53 PM 55.9 °F 55.9 °F 100% 29.77 in 1.0 mi ENE 13.8 mph 20.7 mph N/A   Overcast
7:13 PM 56.1 °F 56.1 °F 100% 29.76 in 0.5 mi ENE 15.0 mph 24.2 mph N/A Fog Fog
7:34 PM 56.3 °F 56.3 °F 100% 29.78 in 0.5 mi ENE 18.4 mph 23.0 mph N/A Fog Fog
7:53 PM 56.3 °F 56.3 °F 100% 29.78 in 0.5 mi ENE 17.3 mph 21.9 mph N/A Rain Light Rain
8:12 PM 56.3 °F 56.3 °F 100% 29.77 in 1.8 mi East 13.8 mph 24.2 mph N/A Rain , Thunderstorm Light Thunderstorms and Rain
8:33 PM 56.5 °F 56.5 °F 100% 29.75 in 1.8 mi East 16.1 mph 23.0 mph 0.02 in Rain Light Rain
8:53 PM 56.5 °F 56.5 °F 100% 29.77 in 2.5 mi East 8.1 mph 21.9 mph 0.13 in Rain , Thunderstorm Heavy Thunderstorms and Rain
9:14 PM 56.8 °F 56.8 °F 100% 29.77 in 4.0 mi East 10.4 mph - 0.11 in Rain , Thunderstorm Light Thunderstorms and Rain
9:33 PM 56.8 °F 56.8 °F 100% 29.76 in 10.0 mi East 12.7 mph 18.4 mph 0.11 in   Overcast
9:53 PM 56.8 °F 56.8 °F 100% 29.74 in 10.0 mi ENE 12.7 mph 18.4 mph 0.11 in   Overcast
10:14 PM 57.2 °F 57.2 °F 100% 29.76 in 7.0 mi East 11.5 mph 18.4 mph N/A   Overcast
10:33 PM 57.4 °F 57.4 °F 100% 29.76 in 5.0 mi East 11.5 mph - N/A   Overcast
10:53 PM 57.6 °F 57.6 °F 100% 29.77 in 2.0 mi East 10.4 mph - N/A   Overcast
11:13 PM 57.4 °F 57.4 °F 100% 29.77 in 0.8 mi East 12.7 mph 18.4 mph N/A   Overcast
11:33 PM 57.4 °F 57.4 °F 100% 29.77 in 0.5 mi East 9.2 mph - N/A Fog Fog
11:53 PM 57.4 °F 57.4 °F 100% 29.76 in 0.5 mi East 11.5 mph - N/A Fog Fog